Wetterstats.de || Aktuelle Messwerte / Archiv || Stationsstandorte || Wetterblog || Wissenswertes


Monatsübersicht für November 2019 Diagramm
 
Wetter Information zur Wetteranzeige
Zeitraffer
Tageslänge (hh:mm)
Höchsttemperatur in °C
Uhrzeit
Tiefsttemperatur in °C
Uhrzeit
Luftfeuchte (max., in %)
Uhrzeit
Luftfeuchte (min., in %)
Uhrzeit
Luftdruck (max., in hPa)
Uhrzeit
Luftdruck (min., in hPa)
Uhrzeit
Luftdruck (Ø, in hPa)
Regenrate (max, mm/h)
Uhrzeit
Niederschlag in mm
Niederschlagsdauer (hh:mm)
Verdunstung in mm
Solar in W/m² (Ø)
Solar in W/m² (max.)
UV-Index (max.)
Sonnenscheindauer (hh:mm)
Windrichtung (Ø)
Windstärke (Ø in km/h)
Windstärke (Ø in bft)
Windböe (max., in km/h)
Uhrzeit
Windböe (max., in bft)
Uhrzeit
Taupunkt (max., in °C)
Uhrzeit
Taupunkt (min., in °C)
Uhrzeit
Windchill (min., in °C)
Uhrzeit
Gewitterindex (max.)
Uhrzeit
Waldbrandindex (max.)
Uhrzeit
Graslandfeuerindex (max.)
Uhrzeit
Staubsturm-Index (max.)
Uhrzeit
01
Zeitraffer
09:39
6.8
14:15 Uhr
-1.3
04:05 Uhr

93
21:35 Uhr
68
11:30 Uhr
1022.9
00:00 Uhr

1000.0
23:55 Uhr
1012.7
2,400
18:50 Uhr
1,000
00:05:00
0.635
122
312
11:25 Uhr
0.5
10:45 Uhr

03:59:00
3,1
1
22,5
10:15 Uhr

4
5.3
23:50 Uhr
-2.6
03:00 Uhr
-1.3
04:05 Uhr
0
00:00 Uhr
0.0
00:00 Uhr
0.6
12:10 Uhr
0.0
00:00 Uhr
02
Zeitraffer
09:35
15.5
15:05 Uhr
6.4
00:00 Uhr

95
08:30 Uhr
85
15:05 Uhr
999.9
00:00 Uhr

991.1
16:05 Uhr
993.3
2,400
02:10 Uhr
0,800
00:04:00
0.203
45
107
13:15 Uhr
0.0
00:00 Uhr

00:00:00
2,1
1
16,1
05:35 Uhr

3
13.1
15:20 Uhr
5.4
00:00 Uhr
5.9
00:20 Uhr
5
17:15 Uhr
0.0
00:00 Uhr
0.2
15:00 Uhr
0.0
00:00 Uhr
03
Zeitraffer
09:31
12.6
00:00 Uhr
8.2
23:25 Uhr

96
22:15 Uhr
89
03:30 Uhr
991.7
00:20 Uhr

987.9
23:35 Uhr
989.5
2,400
07:05 Uhr
1,800
00:09:00
0.229
43
177
12:50 Uhr
0.0
00:00 Uhr

00:00:00
1,6
0
12,9
04:20 Uhr

2
11.6
12:50 Uhr
7.6
23:25 Uhr
8.2
23:25 Uhr
3
00:00 Uhr
0.0
00:00 Uhr
0.3
06:15 Uhr
0.0
00:00 Uhr
04
Zeitraffer
09:28
11.9
14:30 Uhr
8.2
00:00 Uhr

98
06:05 Uhr
90
17:20 Uhr
991.6
23:55 Uhr

987.6
00:35 Uhr
989.0
2,400
06:05 Uhr
5,400
00:27:00
0.102
32
110
12:35 Uhr
0.0
00:00 Uhr

00:00:00
0,2
0
8,0
00:00 Uhr

2
11.5
12:35 Uhr
7.6
00:00 Uhr
8.2
00:00 Uhr
2
05:50 Uhr
0.0
00:00 Uhr
0.0
00:00 Uhr
0.0
00:00 Uhr
05
Zeitraffer
09:25
11.7
13:05 Uhr
8.4
02:35 Uhr

96
03:50 Uhr
81
15:15 Uhr
995.9
22:35 Uhr

991.5
00:00 Uhr
994.1
2,400
16:15 Uhr
0,400
00:02:00
0.254
53
188
10:15 Uhr
0.0
00:00 Uhr

00:01:00
0,1
0
3,2
07:30 Uhr

1
9.4
11:00 Uhr
7.6
02:50 Uhr
8.4
02:35 Uhr
0
00:00 Uhr
0.0
00:00 Uhr
0.0
00:00 Uhr
0.0
00:00 Uhr
06
Zeitraffer
09:21
9.6
12:50 Uhr
6.8
23:55 Uhr

96
08:45 Uhr
90
00:00 Uhr
1002.4
23:25 Uhr

995.6
00:55 Uhr
998.5
2,400
02:45 Uhr
3,200
00:16:00
0.152
30
68
11:50 Uhr
0.0
00:00 Uhr

00:00:00
0,0
0
3,2
01:55 Uhr

1
8.6
09:55 Uhr
6.1
23:55 Uhr
6.8
23:55 Uhr
0
00:00 Uhr
0.0
00:00 Uhr
0.0
00:00 Uhr
0.0
00:00 Uhr
07
Zeitraffer
09:17
11.2
14:00 Uhr
6.3
00:55 Uhr

96
02:40 Uhr
80
23:45 Uhr
1004.2
23:45 Uhr

1001.5
13:20 Uhr
1002.4
0,000
00:00 Uhr
0,000
00:00:00
0.229
50
198
10:30 Uhr
0.0
00:00 Uhr

00:06:00
0,9
0
14,5
15:15 Uhr

3
8.5
13:20 Uhr
5.6
00:45 Uhr
6.3
00:55 Uhr
0
00:00 Uhr
0.0
00:00 Uhr
0.0
00:00 Uhr
0.0
00:00 Uhr
08
Zeitraffer
09:14
10.1
13:25 Uhr
5.1
07:40 Uhr

95
23:00 Uhr
80
00:00 Uhr
1007.9
10:10 Uhr

1004.0
23:45 Uhr
1005.8
2,400
21:05 Uhr
0,800
00:04:00
0.279
64
221
10:45 Uhr
0.0
00:00 Uhr

00:07:00
2,2
1
14,5
15:40 Uhr

3
7.4
15:00 Uhr
3.9
06:50 Uhr
5.1
07:40 Uhr
0
00:00 Uhr
0.0
00:00 Uhr
0.0
00:00 Uhr
0.0
00:00 Uhr
09
Zeitraffer
09:10
8.0
11:35 Uhr
5.2
22:50 Uhr

97
06:35 Uhr
94
20:15 Uhr
1008.9
23:50 Uhr

1002.9
04:40 Uhr
1005.4
2,400
06:15 Uhr
0,800
00:04:00
0.000
13
49
11:15 Uhr
0.0
00:00 Uhr

00:00:00
0,2
0
8,0
00:30 Uhr

2
7.6
11:35 Uhr
4.4
23:10 Uhr
5.2
22:50 Uhr
0
00:00 Uhr
0.0
00:00 Uhr
0.0
00:00 Uhr
0.0
00:00 Uhr
10
Zeitraffer
09:07
9.3
13:45 Uhr
3.2
07:40 Uhr

97
18:55 Uhr
72
14:30 Uhr
1014.9
22:15 Uhr

1008.9
00:00 Uhr
1012.3
0,000
00:00 Uhr
0,000
00:00:00
0.406
100
281
11:55 Uhr
0.0
00:00 Uhr

03:03:00
0,3
0
8,0
13:00 Uhr

2
6.1
11:05 Uhr
2.4
07:45 Uhr
3.2
07:40 Uhr
0
00:00 Uhr
0.0
00:00 Uhr
0.0
00:00 Uhr
0.0
00:00 Uhr
11
Zeitraffer
09:04
6.8
14:20 Uhr
1.9
09:50 Uhr

97
00:00 Uhr
74
14:40 Uhr
1014.9
00:05 Uhr

1005.2
23:45 Uhr
1010.5
0,000
00:00 Uhr
0,000
00:00:00
0.406
68
286
11:30 Uhr
0.0
00:00 Uhr

01:11:00
2,5
1
20,9
23:05 Uhr

4
4.3
00:00 Uhr
0.6
23:30 Uhr
1.8
18:00 Uhr
0
00:00 Uhr
0.0
00:00 Uhr
0.0
00:00 Uhr
0.0
00:00 Uhr
12
Zeitraffer
09:00
7.4
14:30 Uhr
2.2
01:00 Uhr

88
00:30 Uhr
76
15:25 Uhr
1006.1
09:10 Uhr

1003.4
23:40 Uhr
1004.9
0,000
00:00 Uhr
0,000
00:00:00
0.305
52
150
10:40 Uhr
0.0
00:00 Uhr

00:00:00
1,9
0
17,7
17:10 Uhr

3
3.6
13:05 Uhr
0.0
02:40 Uhr
2.2
01:00 Uhr
0
00:00 Uhr
0.0
00:00 Uhr
0.0
00:00 Uhr
0.0
00:00 Uhr
13
Zeitraffer
08:57
7.2
14:20 Uhr
4.4
05:50 Uhr

89
06:00 Uhr
78
15:00 Uhr
1003.4
00:00 Uhr

1001.0
13:35 Uhr
1002.1
0,000
00:00 Uhr
0,000
00:00:00
0.152
40
105
11:35 Uhr
0.0
00:00 Uhr

00:00:00
0,8
0
12,9
07:35 Uhr

2
4.0
17:20 Uhr
2.0
22:45 Uhr
4.4
05:50 Uhr
0
00:00 Uhr
0.0
00:00 Uhr
0.0
00:00 Uhr
0.0
00:00 Uhr
14
Zeitraffer
08:53
9.4
11:40 Uhr
3.7
21:25 Uhr

92
21:40 Uhr
68
12:45 Uhr
1010.3
18:50 Uhr

1003.2
00:05 Uhr
1007.6
0,000
00:00 Uhr
0,000
00:00:00
0.457
93
264
11:35 Uhr
0.0
00:00 Uhr

02:51:00
3,0
1
32,2
22:00 Uhr

5
4.4
11:00 Uhr
1.5
23:55 Uhr
-3.6
23:40 Uhr
0
00:00 Uhr
0.0
00:00 Uhr
0.2
13:30 Uhr
0.0
00:00 Uhr
15
Zeitraffer
08:51
9.4
20:15 Uhr
3.7
00:40 Uhr

92
23:20 Uhr
85
00:00 Uhr
1009.7
00:10 Uhr

1003.4
13:15 Uhr
1005.6
0,000
00:00 Uhr
0,000
00:00:00
0.330
39
160
11:45 Uhr
0.0
00:00 Uhr

00:00:00
7,1
2
33,8
08:55 Uhr

5
7.7
20:15 Uhr
1.4
01:00 Uhr
-2.7
01:35 Uhr
0
00:00 Uhr
0.0
00:00 Uhr
0.0
00:00 Uhr
0.0
00:00 Uhr


 
Wetter Information zur Wetteranzeige
Zeitraffer
Tageslänge (hh:mm)
Höchsttemperatur in °C
Uhrzeit
Tiefsttemperatur in °C
Uhrzeit
Luftfeuchte (max., in %)
Uhrzeit
Luftfeuchte (min., in %)
Uhrzeit
Luftdruck (max., in hPa)
Uhrzeit
Luftdruck (min., in hPa)
Uhrzeit
Luftdruck (Ø, in hPa)
Regenrate (max, mm/h)
Uhrzeit
Niederschlag in mm
Niederschlagsdauer (hh:mm)
Verdunstung in mm
Solar in W/m² (Ø)
Solar in W/m² (max.)
UV-Index (max.)
Sonnenscheindauer (hh:mm)
Windrichtung (Ø)
Windstärke (Ø in km/h)
Windstärke (Ø in bft)
Windböe (max., in km/h)
Uhrzeit
Windböe (max., in bft)
Uhrzeit
Taupunkt (max., in °C)
Uhrzeit
Taupunkt (min., in °C)
Uhrzeit
Windchill (min., in °C)
Uhrzeit
Gewitterindex (max.)
Uhrzeit
Waldbrandindex (max.)
Uhrzeit
Graslandfeuerindex (max.)
Uhrzeit
Staubsturm-Index (max.)
Uhrzeit
16
Zeitraffer
08:47
9.1
10:10 Uhr
3.7
23:55 Uhr

96
08:55 Uhr
85
15:00 Uhr
1013.9
23:55 Uhr

1001.2
06:00 Uhr
1006.3
2,400
06:00 Uhr
1,600
00:08:00
0.000
18
60
13:35 Uhr
0.0
00:00 Uhr

00:00:00
1,2
0
19,3
06:55 Uhr

3
8.5
10:10 Uhr
2.4
23:45 Uhr
3.7
23:55 Uhr
0
00:00 Uhr
0.0
00:00 Uhr
0.0
00:00 Uhr
0.0
00:00 Uhr
17
Zeitraffer
08:44
8.3
23:20 Uhr
0.5
06:40 Uhr

97
21:35 Uhr
91
00:00 Uhr
1015.2
06:25 Uhr

1005.1
22:35 Uhr
1011.3
2,400
09:05 Uhr
1,000
00:05:00
0.051
26
76
13:35 Uhr
0.0
00:00 Uhr

00:00:00
2,9
1
19,3
13:55 Uhr

3
7.9
23:25 Uhr
-0.4
06:40 Uhr
0.5
06:40 Uhr
0
00:00 Uhr
0.0
00:00 Uhr
0.0
00:00 Uhr
0.0
00:00 Uhr

Seiten-Historie || Downloads || Impressum / Datenschutz